Location: ??
(35.2398°N, 128.3386°E)
Time: 08:56:48
(UTC+00:00)

Daily predictions for brighter satellites

Satellite Brightness Start Highest point End
(mag) Time Altitude Azimuth Time Altitude Azimuth Time Altitude Azimuth
STARLINK-1066 4.1 12:02:21 10° NW 12:06:23 51° SW 12:08:20 27° SSE
Cosmos 2221 Rocket 3.9 12:02:16 10° SSW 12:06:45 69° W 12:11:17 10° N
Meteor 1-12 Rocket 4.2 12:01:25 10° N 12:07:04 68° E 12:10:45 23° SSE
MetOp-B 4.4 12:05:15 24° SE 12:08:15 53° ENE 12:13:27 10° N
STARLINK-1081 4.3 12:07:24 10° WNW 12:11:22 46° SW 12:13:08 28° S
Cosmos 1741 Rocket 4.5 12:10:57 10° N 12:15:57 44° ENE 12:18:00 30° ESE
STARLINK-1070 4.4 12:12:24 10° WNW 12:16:18 41° SW 12:17:54 28° S
OE (NEXTSAT) 4.3 12:13:34 10° SW 12:17:00 56° SE 12:17:51 42° E
SPOT 3 Rocket 4.4 12:13:35 11° S 12:18:15 47° W 12:23:14 10° NNW
Cosmos 972 Rocket 4.5 12:14:07 15° S 12:19:04 63° E 12:25:40 10° NNE
USA 245 3.5 12:19:45 35° ENE 12:19:45 35° ENE 12:22:11 10° N
NOSS 2-2 (D) 2.9 12:17:09 10° SSW 12:20:46 76° ESE 12:24:25 10° NE
ASTRO E2 2.9 12:17:17 10° WSW 12:21:07 47° S 12:21:31 45° SSE
SAR-Lupe-2 3.4 12:19:07 10° NNE 12:22:42 68° ESE 12:23:32 48° SSE
Cosmos 1110 Rocket 3.9 12:19:28 21° S 12:22:51 62° ESE 12:27:58 10° NNE
Resurs 01 Rocket 2.0 12:20:25 22° S 12:23:09 61° W 12:27:33 10° NNW
STARLINK-1116 4.4 12:19:41 10° NNW 12:23:38 41° NE 12:25:00 31° E
SPOT 1/Viking Rocket 4.1 12:22:09 31° ESE 12:23:55 41° ENE 12:28:45 10° N
Spot 2 Rocket 3.6 12:23:07 34° SE 12:25:10 61° ENE 12:30:08 10° N
Cosmos 1850 Rocket 4.2 12:20:31 10° N 12:25:48 59° ENE 12:27:49 36° SE
Intercosmos 24 3.7 12:23:25 10° N 12:27:00 88° WSW 12:28:23 40° S
Terra 3.4 12:29:57 19° E 12:30:40 19° ENE 12:34:02 10° NNE
Okean 2 Rocket 3.5 12:26:56 10° NNW 12:31:15 58° W 12:33:31 26° SSW
Okean 1 Rocket 3.7 12:27:19 10° N 12:31:27 37° E 12:31:54 36° E
STARLINK-1094 4.1 12:29:34 10° NW 12:33:37 51° NE 12:34:35 41° E
NOSS 2-2 (E) 4.1 12:34:43 10° SW 12:38:10 46° NW 12:41:47 10° NNE
STARLINK-1117 3.9 12:34:31 10° NW 12:38:36 56° NE 12:39:21 48° E
Cosmos 1331 Rocket 3.8 12:37:05 27° S 12:39:59 81° ESE 12:45:10 10° NNE
CARTOSAT-1 4.2 12:42:16 37° E 12:42:30 37° ENE 12:46:30 10° N
STARLINK-1078 3.7 12:39:29 10° NW 12:43:36 62° NE 12:44:08 56° E
GPS 2-04 Rocket1 2.4 12:41:27 10° W 12:44:50 81° WNW 12:44:50 81° WNW
Cosmos 2151 Rocket 4.0 12:41:29 10° NNW 12:45:57 59° W 12:47:34 36° SSW
SL-4 R/B 2.2 12:42:17 10° SW 12:46:54 65° SE 12:51:41 10° NE
SL-4 R/B 3.1 12:44:38 10° NW 12:46:41 23° W 12:46:41 23° W
Meteor 1-15 Rocket 4.3 12:41:32 10° N 12:47:28 72° E 12:49:23 44° SSE
STARLINK-1108 3.6 12:44:27 10° NW 12:48:35 70° NE 12:48:55 65° E
Cosmos 1302 Rocket 4.2 12:49:26 48° ESE 12:49:49 49° ESE 12:54:54 10° NNE
BREEZE-M DEB (TANK) 4.1 12:35:31 10° SSW 12:49:55 40° SE 12:51:23 36° ESE
STARLINK-1071 3.5 12:49:25 10° NW 12:53:34 78° NE 12:53:42 76° ENE
STARLINK-1110 3.5 12:53:13 10° NW 12:57:21 84° NE 12:57:21 84° NE
STARLINK-1124 3.6 12:59:22 10° NW 13:03:16 78° WNW 13:03:16 78° WNW
ATLAS 2AS CENTAUR R/B 3.3 13:03:57 42° SE 13:05:14 45° ESE 13:12:42 10° NE
Lacrosse 5 2.2 13:00:39 10° NW 13:05:33 52° SW 13:06:07 49° SSW
Cosmos 1943 Rocket 2.0 13:04:41 46° SSW 13:06:23 85° ESE 13:12:00 10° NNE
STARLINK-1122 3.8 13:04:20 10° NW 13:08:02 67° W 13:08:02 67° W
Cosmos 1833 Rocket 4.4 13:06:15 10° NW 13:10:41 24° WSW 13:13:16 17° SW
STARLINK-1126 4.0 13:09:20 10° NW 13:12:51 58° W 13:12:51 58° W
Cosmos 1378 4.0 13:16:44 49° NW 13:16:44 49° NW 13:19:54 10° N
Cosmos 2082 Rocket 3.2 13:11:41 10° NW 13:16:55 38° WSW 13:18:35 31° SW
OAO 1 4.4 13:12:45 10° WSW 13:18:16 82° S 13:18:46 73° ESE
STARLINK-1082 4.3 13:14:19 10° NW 13:17:36 49° W 13:17:36 49° W
Cosmos 2026 Rocket 4.0 13:17:47 58° SE 13:18:40 64° E 13:24:55 10° NNE
Cosmos 2369 Rocket 2.0 13:20:31 69° S 13:21:12 80° ESE 13:26:52 10° NNE
USA 238 DEB 4.3 13:19:29 10° NNW 13:26:32 50° NE 13:28:44 39° E
USA 238 4.3 13:19:35 10° NNW 13:26:38 50° NE 13:28:50 39° E
SeaSat 1 4.0 13:23:26 10° NE 13:25:45 24° ENE 13:25:45 24° ENE
Milstar 3 Cent rocket 4.3 13:20:15 10° SW 13:29:39 54° SSE 13:50:00 10° E
ISS -1.0 13:31:33 10° WNW 13:32:23 15° WNW 13:32:23 15° WNW
Cosmos 292 Rocket 4.1 13:36:05 59° NNE 13:36:05 59° NNE 13:40:03 10° NNE
Cosmos 1766 4.3 13:33:00 10° NNW 13:35:53 45° NNW 13:35:53 45° NNW
Cosmos 1656 Rocket 4.3 13:38:14 43° ENE 13:38:14 43° ENE 13:42:24 10° NNE
Meteor 1-22 Rocket 4.1 13:31:28 10° N 13:37:19 89° ENE 13:37:34 83° SSE
SPOT 5 3.3 13:37:23 59° WSW 13:37:40 60° W 13:42:55 10° NNW
Cosmos 1975 Rocket 3.6 13:39:01 57° NW 13:39:01 57° NW 13:42:51 10° N
ERS-1 Rocket 3.6 13:39:42 46° WSW 13:39:57 46° W 13:44:47 10° NNW
Meteor 2-13 Rocket 4.3 13:43:24 75° S 13:44:00 89° W 13:50:12 10° N
Thor Agena Rocket 4.2 13:40:14 10° NNE 13:44:15 44° ENE 13:44:15 44° ENE
APEX 4.5 13:50:44 59° SW 13:52:00 76° WNW 13:57:48 10° NNE
ATLAS CENTAUR R/B 3.6 13:58:59 19° NE 13:58:59 19° NE 14:00:15 10° NE
Cosmos 968 Rocket 4.3 13:53:22 10° N 13:57:31 42° NE 13:57:31 42° NE
Terra 3.0 14:08:50 35° WNW 14:08:50 35° WNW 14:12:31 10° NNW
ATLAS 3B CENTAUR R/B 3.6 14:00:08 10° W 14:08:20 39° SW 14:08:20 39° SW
COSMOS 2455 3.1 14:17:24 61° NE 14:17:24 61° NE 14:22:23 10° NNE
CENTAUR R/B 3.4 14:12:16 10° NNW 14:20:33 66° ENE 14:22:31 53° ESE
ATLAS 3B R/B 4.0 14:16:59 10° NNW 14:22:57 31° NE 14:25:05 26° E
BREEZE-M R/B 4.5 14:11:42 10° SW 14:25:16 52° ENE 14:28:49 10° NE
NOSS 3-2 (C) 4.1 14:16:43 10° NNW 14:24:36 77° ENE 14:25:55 65° ESE
SL-4 R/B 4.4 14:22:57 10° W 14:26:58 26° NNW 14:31:02 10° NNE
NOSS 3-4 (A) 3.9 14:27:08 49° W 14:27:59 54° NW 14:34:03 10° NNE
NOSS 3-4 (C) 3.9 14:27:16 50° W 14:28:05 54° NW 14:34:09 10° NNE
Cosmos 2315 Rocket 4.4 14:47:21 10° N 14:52:45 55° NE 14:52:45 55° NE
ATLAS 2AS CENTAUR R/B 4.0 14:51:16 20° WSW 14:56:16 41° NW 15:03:45 10° NNE
Cosmos 1867 4.3 14:51:28 10° NNW 14:55:33 50° N 14:55:33 50° N
Cosmos 2098 Rocket 4.2 14:57:52 81° ENE 14:57:52 81° ENE 15:05:07 10° N
ALOS 2 4.4 15:00:51 30° N 15:00:51 30° N 15:03:06 10° N
S3M 4.4 14:54:00 10° NNW 14:59:24 54° WNW 14:59:24 54° WNW
SeaSat 1 4.1 15:01:12 10° N 15:05:16 26° WNW 15:05:31 26° WNW
FALCON 9 R/B 3.5 15:25:22 41° E 15:25:22 41° E 15:33:52 10° E
CZ-4C R/B 3.9 15:35:42 21° ENE 15:35:42 21° ENE 15:37:57 10° NE
ATLAS CENTAUR R/B 4.2 15:35:06 13° NW 15:35:14 13° NW 15:37:07 10° NNW
Meteor 1-24 Rocket 4.4 15:44:24 49° N 15:44:24 49° N 15:48:22 10° N
USA 215 3.4 15:43:45 59° E 15:44:43 66° NE 15:51:12 10° NW
Cosmos 1745 Rocket 4.2 15:56:55 64° NE 15:56:55 64° NE 16:02:18 10° NNE
Cosmos 1980 Rocket 4.2 15:58:24 18° E 15:58:24 18° E 16:01:11 10° ENE
Resurs 1-4 Rocket 4.0 15:58:33 10° NE 16:01:46 20° E 16:01:46 20° E
CENTAUR R/B 4.3 16:03:57 10° NW 16:09:40 28° W 16:09:40 28° W
ATLAS 3B R/B 3.3 16:07:13 10° NW 16:12:18 43° WNW 16:12:18 43° WNW
CZ-2D R/B 3.7 16:10:55 10° NE 16:14:34 25° E 16:14:34 25° E
Cosmos 2219 3.6 16:09:50 10° NNW 16:14:46 60° NNE 16:14:46 60° NNE
Cosmos 2297 Rocket 2.6 16:14:39 10° NNW 16:19:57 57° NE 16:19:57 57° NE
SJ 16-02 3.0 16:16:29 10° N 16:19:22 32° NNE 16:19:22 32° NNE
SL-16 R/B 4.0 16:18:57 23° ESE 16:21:21 31° ENE 16:26:37 10° N
IRAS Rocket 4.4 16:29:20 67° NE 16:29:20 67° NE 16:34:33 10° N
Meteor 2-10 Rocket 4.2 16:25:44 10° N 16:30:11 47° ENE 16:30:11 47° ENE
Meteor 1-21 Rocket 4.4 16:32:44 70° NNE 16:32:44 70° NNE 16:37:47 10° N
Cosmos 2278 4.3 16:33:56 47° E 16:33:56 47° E 16:38:45 10° NNE
VEP-3 4.3 16:33:34 48° S 16:34:35 49° S 17:19:47 10° ESE
VEP-3 4.3 16:33:34 48° S 16:34:35 49° S 17:19:46 10° ESE
Cosmos 540 Rocket 4.4 16:35:40 41° ENE 16:35:40 41° ENE 16:39:41 10° NNE
Cosmos 1898 Rocket 4.0 16:31:37 10° N 16:36:39 54° ENE 16:36:39 54° ENE
Cosmos 1656 4.4 16:42:13 44° NW 16:42:13 44° NW 16:47:14 10° N
Cosmos 1697 Rocket 2.8 16:45:54 73° NNW 16:45:54 73° NNW 16:51:07 10° NNE
Cosmos 1709 Rocket 3.8 16:45:34 85° NW 16:45:34 85° NW 16:51:38 10° N
Lacrosse 4 Rocket 3.3 16:42:43 10° N 16:46:21 26° ENE 16:46:44 26° ENE
BREEZE-M DEB (TANK) 4.0 16:44:06 10° NW 16:48:09 86° NE 16:59:51 10° SE
NPP 4.2 16:43:50 10° NNE 16:48:57 49° E 16:48:57 49° E
CZ-4B R/B 4.4 16:44:29 10° NNE 16:49:22 41° E 16:49:22 41° E
Cosmos 1814 Rocket 4.3 16:52:43 61° ENE 16:52:43 61° ENE 16:57:34 10° NNE
Cosmos 1570 Rocket 4.1 16:53:29 72° NNE 16:53:29 72° NNE 16:58:14 10° NNE
Cosmos 1455 4.2 16:51:37 10° N 16:53:19 26° N 16:53:19 26° N
Cosmos 2227 Rocket 2.3 16:51:22 10° NNW 16:56:24 69° NW 16:56:24 69° NW
USA 81 4.4 16:59:48 55° NW 16:59:48 55° NW 17:04:17 10° N
CZ-4C R/B 4.3 17:01:44 50° NNE 17:01:44 50° NNE 17:05:10 10° N
Cosmos 990 Rocket 4.2 16:58:43 10° NNW 17:03:07 62° NW 17:03:07 62° NW
SL-16 R/B 4.1 17:02:39 18° ESE 17:04:04 19° E 17:07:58 10° NE
Cosmos 2208 Rocket 4.0 17:05:05 78° N 17:05:05 78° N 17:10:04 10° NNE
Cosmos-2242 3.8 17:02:03 10° N 17:05:13 48° NNE 17:05:13 48° NNE
Cosmos 489 Rocket 4.5 17:10:06 60° SSE 17:10:58 68° ESE 17:17:09 10° NNE
Meteor 1-11 4.2 17:12:04 66° SE 17:12:34 71° E 17:18:08 10° NNE
Cosmos 841 Rocket 3.6 17:12:56 67° NW 17:12:56 67° NW 17:17:54 10° NNE
UNK 3.8 17:21:12 72° NNW 17:21:12 72° NNW 17:25:19 10° NNW
CZ-4C R/B 3.3 17:20:52 27° WNW 17:21:41 28° NW 17:26:32 10° NNE
ADEOS II 2.9 17:17:13 10° NNE 17:22:12 42° E 17:23:21 37° SE
Cosmos 2074 Rocket 4.0 17:28:32 53° S 17:30:08 83° E 17:36:27 10° N
CBERS-1 3.9 17:32:01 10° NNE 17:37:10 80° ESE 17:37:58 64° S
Cosmos 1980 Rocket 2.5 17:40:10 47° W 17:40:56 50° WNW 17:46:25 10° N
Resurs 1-4 Rocket 2.6 17:37:24 10° N 17:42:21 42° WNW 17:42:50 41° W
BREEZE M DEB (TANK) 3.9 17:45:16 10° NW 17:48:02 51° NE 17:55:37 10° ESE
Cosmos 2184 Rocket 3.9 17:47:35 49° SSW 17:49:14 71° W 17:55:23 10° N
GEOS 3 Rocket 3.4 17:48:48 45° SSE 17:50:23 71° WSW 17:55:38 10° NW
Skynet4D Del rocket 4.4 17:51:25 37° S 17:51:25 37° S 17:56:07 10° ESE
IRS-P3 4.2 17:45:33 10° NNE 17:50:53 75° ESE 17:52:33 45° S
STARLINK-1244 4.3 17:47:22 10° NW 17:51:26 53° NE 17:55:29 10° ESE
STARLINK-1278 4.2 17:51:33 45° SE 17:51:35 45° SE 17:55:39 10° ENE
STARLINK-1280 4.2 17:53:19 47° SE 17:53:24 47° SE 17:57:30 10° ENE
STARLINK-1302 4.4 17:55:01 39° SE 17:55:06 39° SE 17:58:57 10° ENE
CZ-2D R/B 3.0 17:50:40 10° N 17:55:14 32° WNW 17:55:53 31° W
STARLINK-1138 4.1 17:52:20 10° NW 17:56:26 59° NE 18:00:31 10° ESE
Cosmos 2327 Rocket 4.5 17:55:23 38° S 17:58:03 86° W 18:04:29 10° N
Iridium 2 3.7 17:54:23 10° N 17:58:09 73° E 17:58:27 68° SE
IRS-1D 3.7 17:54:48 10° N 18:00:00 61° WNW 18:01:13 47° SW
STARLINK-1273 4.2 17:59:47 43° SE 18:00:01 44° SE 18:03:58 10° ENE
ERBS 3.8 17:57:53 10° NNW 18:01:02 37° NE 18:04:10 10° ESE
STARLINK-48 3.3 18:01:02 76° WNW 18:01:08 77° NW 18:05:01 10° NE
STARLINK-1143 3.9 17:57:16 10° NW 18:01:24 66° NE 18:05:30 10° SE
STARLINK-58 4.1 18:02:01 37° NNW 18:02:01 37° NNW 18:04:38 10° NNE
Cosmos 1610 Rocket 4.4 17:59:36 38° S 18:02:09 85° W 18:08:20 10° N
GP-B 4.4 17:59:16 10° NNW 18:02:37 27° WNW 18:02:37 27° WNW
Cosmos 2297 Rocket 4.1 18:00:23 10° WNW 18:01:43 14° WNW 18:01:43 14° WNW
SL-16 R/B 3.0 18:04:02 36° WSW 18:04:46 37° W 18:10:25 10° NNW
STARLINK-1288 4.0 18:04:34 47° SSE 18:05:00 49° SE 18:09:00 10° ENE
STARLINK-1241 3.7 18:02:16 10° NW 18:06:25 74° NE 18:10:32 10° SE
Timation 1 Rocket 4.4 18:00:31 10° NNW 18:06:30 77° ENE 18:12:26 10° SSE
Meteor 1-27 4.1 18:02:20 10° NNW 18:07:52 73° W 18:10:21 34° S
Cosmos 2263 Rocket 3.0 18:03:30 10° N 18:08:56 51° ENE 18:14:19 10° SE
STARLINK-1308 3.8 18:09:24 50° SSE 18:10:00 56° SE 18:14:04 10° NE
Cosmos 1869 3.5 18:07:02 10° N 18:10:52 64° E 18:12:23 34° SSE
STARLINK-1239 3.6 18:07:13 10° NW 18:11:23 82° NE 18:15:31 10° SE
Cosmos 2058 3.0 18:10:27 42° SSE 18:11:45 73° E 18:15:57 10° N
NOSS 2-1 (C) 2.8 18:12:04 70° WNW 18:12:10 71° WNW 18:15:35 10° NNE
Cosmos 1076 Rocket 3.6 18:13:19 37° S 18:14:57 75° E 18:19:19 10° N
CZ-2D R/B 4.1 18:11:04 10° NNE 18:15:13 53° E 18:17:20 27° SSE
Cosmos 2322 Rocket 2.3 18:13:16 31° S 18:15:59 72° ESE 18:21:35 10° NNE
STARLINK-1240 3.5 18:12:11 10° NW 18:16:20 89° WSW 18:20:28 10° SE
NOSS 2-1 (D) 3.0 18:16:27 58° WNW 18:16:39 60° WNW 18:20:02 10° NNE
ARIANE 5 R/B 2.4 18:12:03 10° NNE 18:17:06 88° ESE 18:19:23 33° SSW
Cosmos 1400 Rocket 3.9 18:14:41 10° NNW 18:17:53 30° W 18:17:53 30° W
Cosmos 2150 Rocket 3.8 18:14:07 10° NNW 18:19:16 72° WSW 18:22:38 22° S
STARLINK-1304 3.6 18:18:54 49° SSW 18:19:51 70° SE 18:23:59 10° NE
CZ-2C R/B 4.2 18:16:37 10° NNE 18:20:02 33° E 18:22:24 17° SSE
In-Cosmos 22 Rocket 4.2 18:17:12 29° S 18:20:14 88° W 18:25:50 10° N
STARLINK-1203 3.5 18:16:36 10° NW 18:20:49 81° SW 18:25:00 10° SE
STARLINK-1216 3.4 18:17:09 10° NW 18:21:18 81° SW 18:25:26 10° SE
Cosmos 1375 Rocket 4.5 18:15:11 10° NNW 18:21:46 75° WSW 18:28:14 10° SSE
ATLAS CENTAUR R/B 3.5 18:18:15 10° WNW 18:22:27 39° SW 18:32:14 10° SSE
Cosmos 2154 Rocket 4.1 18:19:33 31° SSW 18:22:31 61° W 18:28:42 10° N
Lacrosse 4 Rocket 3.3 18:21:34 10° NW 18:22:57 16° WNW 18:22:57 16° WNW
STARLINK-1237 3.4 18:22:09 10° NW 18:26:17 72° SW 18:30:23 10° SE
Cosmos 962 Rocket 4.4 18:23:39 22° S 18:27:49 89° E 18:34:01 10° N
STARLINK-1286 3.5 18:26:36 43° SW 18:27:54 88° SE 18:32:04 10° NE
Cosmos 1842 Rocket 3.8 18:23:50 10° NNW 18:28:11 51° W 18:29:37 36° SW
Cosmos 1408 2.9 18:28:16 28° SSE 18:30:03 63° E 18:33:43 10° NNE
STARLINK-1202 3.5 18:27:09 10° NW 18:31:15 64° SW 18:35:20 10° SE
Meteor 1-28 Rocket 3.3 18:29:14 19° SSE 18:31:54 77° ENE 18:35:39 10° N
Cosmos 2151 4.0 18:29:35 13° SSE 18:33:04 45° E 18:37:08 10° NNE
Spot 4 Rocket 4.0 18:32:07 10° NNE 18:37:17 83° WNW 18:40:39 22° SSW
Cosmos 2227 4.1 18:32:06 10° NNW 18:37:51 75° WSW 18:43:34 10° SSE
STARLINK-1281 3.6 18:38:01 34° WSW 18:39:44 76° NW 18:43:53 10° NE
STARLINK-1246 3.7 18:37:10 10° NW 18:41:11 50° SW 18:45:11 10° SSE
Cosmos 1892 3.1 18:42:17 32° SW 18:43:27 43° W 18:47:06 10° N
SL-24 DEB 4.1 18:39:06 10° N 18:43:43 87° W 18:47:18 17° S
STARLINK-1310 3.7 18:42:48 30° WSW 18:44:44 68° NW 18:48:52 10° NE
STARLINK-1224 3.8 18:42:11 10° WNW 18:46:08 45° SW 18:50:05 10° SSE
Cosmos 2221 3.1 18:42:09 10° NNW 18:46:12 38° W 18:48:02 26° SW
Shenzhou-11 Module 3.1 18:46:11 22° NW 18:46:59 27° NNW 18:49:10 10° NE
Cosmos 1315 Rocket 3.2 18:43:23 10° NNW 18:47:05 40° W 18:48:39 27° SW
SL-16 R/B 2.6 18:44:32 24° SW 18:47:43 49° WNW 18:53:12 10° N
STARLINK-1306 3.9 18:45:58 27° WSW 18:48:05 59° NW 18:52:14 10° NE
Cosmos 1125 Rocket 3.4 18:43:31 10° NNW 18:48:39 64° WSW 18:53:47 10° S
STARLINK-1319 3.8 18:47:36 26° WSW 18:49:44 61° NW 18:53:50 10° NE
OE (NEXTSAT) 4.2 18:46:21 10° WNW 18:49:52 89° NE 18:53:19 10° ESE
STARLINK-1225 4.0 18:47:13 10° WNW 18:51:07 40° SW 18:54:59 10° SSE
Cosmos 2084 Rocket 3.7 18:47:03 10° NW 18:51:24 49° WSW 18:55:44 10° SSE
STARLINK-1277 4.0 18:52:24 23° WSW 18:54:44 55° NW 18:58:49 10° NE
STARLINK-1230 4.1 18:52:15 10° WNW 18:56:03 36° SW 18:59:51 10° SSE
SL-08 R/B 3.9 18:54:17 19° SSW 18:57:03 36° W 19:01:19 10° NNW
Nadezhda 3 Rocket 4.5 18:52:06 10° NNW 18:57:57 42° W 19:03:11 13° SSW
STARLINK-1299 4.5 18:56:31 19° WSW 18:59:11 42° NW 19:03:15 10° NNE
STARLINK-1276 4.1 18:57:10 21° WSW 18:59:43 49° NW 19:03:45 10° NE
STARLINK-69 4.3 18:58:06 17° SSW 19:00:28 39° SE 19:03:56 10° ENE
Cosmos 2366 rocket 4.0 18:54:45 10° S 19:00:56 85° E 19:07:14 10° N
STARLINK-1243 4.3 18:57:19 10° WNW 19:01:02 32° SW 19:04:42 10° SSE
PSLV R/B 4.4 18:57:26 10° NNE 19:01:29 47° E 19:05:31 10° S
ADEOS II 3.6 18:57:44 10° NNW 19:01:34 21° WNW 19:04:17 14° WSW
CZ-2C R/B 3.8 18:58:54 10° NNE 19:03:47 40° E 19:08:36 10° SSE
STARLINK-21 4.3 19:01:41 16° SSW 19:04:21 40° SE 19:07:58 10° ENE
STARLINK-1305 4.3 19:01:58 18° WSW 19:04:42 45° NW 19:08:41 10° NE
MSX 3.9 18:59:08 10° NNE 19:04:55 85° ESE 19:10:38 10° SSW
STARLINK-45 4.1 19:03:03 17° SSW 19:05:43 47° SE 19:09:23 10° ENE
STARLINK-1236 4.4 19:02:23 10° WNW 19:05:57 29° SW 19:09:31 10° S
STARLINK-76 4.2 19:03:36 16° SSW 19:06:12 41° SE 19:09:42 10° ENE
STARLINK-70 4.1 19:04:02 16° SSW 19:06:43 46° SE 19:10:21 10° ENE
STARLINK-23 4.1 19:04:40 16° SSW 19:07:16 42° SE 19:10:45 10° ENE
STARLINK-32 4.1 19:06:30 16° SSW 19:09:12 45° SE 19:12:43 10° ENE
STARLINK-1262 4.4 19:06:45 16° WSW 19:09:42 41° NW 19:13:38 10° NNE
ERS-2 2.9 19:07:35 15° SSW 19:10:05 33° W 19:13:25 10° NNW
STARLINK-61 3.9 19:08:25 18° WSW 19:11:10 54° NW 19:15:01 10° NE
Okean 3 Rocket 3.6 19:07:19 10° S 19:11:50 77° W 19:16:23 10° N
STARLINK-25 3.9 19:09:11 15° SSW 19:11:55 47° SE 19:15:25 10° ENE
Cosmos 2333 Rocket 3.5 19:07:36 10° S 19:12:44 38° ESE 19:17:55 10° NE
STARLINK-44 3.9 19:10:48 15° SSW 19:13:39 51° SE 19:17:15 10° NE
STARLINK-40 3.9 19:10:44 15° SSW 19:13:44 52° SE 19:17:27 10° NE
Cosmos 1408 Rocket 4.4 19:10:06 10° S 19:14:17 51° E 19:18:28 10° NNE
IDEFIX/ARIANE 42P 2.9 19:10:05 10° N 19:15:10 50° WNW 19:20:04 11° SSW
STARLINK-37 3.7 19:13:33 15° SSW 19:16:34 61° SE 19:20:17 10° NE
Cosmos 2360 Rocket 2.3 19:12:11 13° SSW 19:17:16 66° WNW 19:22:53 10° NNE
PAYLOAD A 4.2 19:12:52 10° NNE 19:17:34 64° ESE 19:22:21 10° S
STARLINK-36 3.7 19:14:54 14° SSW 19:18:00 58° SE 19:21:44 10° NE
STARLINK-63 3.5 19:17:11 14° SW 19:20:16 65° SE 19:23:57 10° NE
STARLINK-68 3.5 19:18:33 14° SW 19:21:47 72° SE 19:25:35 10° NE
STARLINK-1013 4.3 19:18:07 11° SSW 19:21:57 47° SE 19:25:56 10° ENE
STARLINK-35 3.6 19:19:39 13° SW 19:22:56 66° SE 19:26:42 10° NE
Cosmos 2322 4.0 19:17:30 10° SSW 19:23:09 72° ESE 19:28:52 10° NNE
COSMOS 2441 4.4 19:18:44 10° N 19:23:38 70° WNW 19:28:29 10° SSW
Meteor 2-3 Rocket 4.3 19:19:00 10° S 19:24:31 61° E 19:30:01 10° NNE
STARLINK-51 3.5 19:21:14 13° SW 19:24:36 70° SE 19:28:22 10° NE
Cosmos 773 Rocket 4.2 19:20:32 10° SSW 19:25:40 60° WNW 19:30:54 10° N
STARLINK-30 3.5 19:22:49 12° SW 19:26:13 72° SE 19:29:59 10° NE
Cosmos 1766 Rocket 3.6 19:22:36 10° SSW 19:26:54 59° W 19:31:11 10° N
STARLINK-1009 4.2 19:22:55 10° SSW 19:26:55 53° SE 19:30:57 10° NE
Meteor 2-12 Rocket 4.5 19:21:00 10° SSW 19:26:59 63° W 19:32:59 10° N
STARLINK-72 3.4 19:23:41 12° SW 19:27:04 74° SE 19:30:47 10° NE
Cosmos 1727 Rocket 4.2 19:21:43 10° N 19:27:54 75° E 19:34:03 10° S
Cosmos 2344 4.4 19:21:07 10° S 19:28:29 47° ESE 19:35:39 10° NE
ADEOS 4.0 19:24:17 10° NNE 19:29:28 64° ESE 19:34:38 10° S
H-2A R/B 2.9 19:25:48 10° SSW 19:29:38 31° W 19:33:34 10° NW
SL-4 R/B 4.2 19:26:17 10° NNW 19:30:34 34° NNE 19:34:36 10° E
STARLINK-59 3.3 19:27:29 11° SW 19:31:02 87° SE 19:34:48 10° NE
STARLINK-1015 4.0 19:27:49 10° SSW 19:31:52 59° SE 19:35:57 10° NE
Cosmos 2333 4.3 19:26:34 10° SSW 19:32:08 81° ESE 19:37:46 10° NNE
STARLINK-56 3.4 19:29:06 11° SW 19:32:45 85° SE 19:36:33 10° NE
Cosmos 1825 3.3 19:29:47 10° SW 19:32:54 26° WNW 19:36:07 10° NNW
STARLINK-73 3.4 19:30:40 10° SW 19:34:22 88° SSE 19:38:10 10° NE
Landsat 5 4.2 19:30:33 10° SSW 19:34:43 37° W 19:38:54 10° NNW
deb Chang Zheng 4 3.7 19:30:54 10° N 19:35:08 59° WNW 19:39:18 10° SSW
STARLINK-38 3.4 19:32:15 10° SW 19:36:01 88° NW 19:39:50 10° NE
STARLINK-1016 3.9 19:32:45 10° SW 19:36:51 67° SE 19:40:58 10° NE
ERBS 4.1 19:35:22 10° W 19:37:01 13° WSW 19:38:40 10° SSW
STARLINK-65 3.4 19:33:53 10° SW 19:37:40 85° NW 19:41:28 10° NE
SAR-Lupe-4 3.6 19:34:49 10° S 19:38:21 62° WSW 19:41:55 10° NNW
Cosmos 2219 Rocket 2.7 19:33:02 10° S 19:38:31 61° ESE 19:44:01 10° NNE
Iridium 4 Rocket 4.4 19:34:27 10° SSE 19:38:57 49° E 19:43:54 10° NNE
STARLINK-53 3.4 19:35:38 10° SW 19:39:24 77° NW 19:43:11 10° NE
STARLINK-1008 3.7 19:37:42 10° SW 19:41:50 75° SE 19:45:57 10° NE
CZ-3 R/B 3.7 19:12:00 11° WSW 19:42:25 53° S 19:50:27 10° E
Meteor 1-31 Rocket 4.3 19:40:08 10° NNE 19:43:41 36° E 19:47:13 10° SSE
USA 234 3.4 19:38:24 10° NE 19:44:58 88° SE 19:51:31 10° SW
